Regional Weather Roundup
Issued by NWS Northern Indiana

Home | Current Version | Previous Version | Text Only | Print | Product List | Glossary On
Versions: 1 2 3 4 5 6 7 8 9 10 11 12 13 14 15 16 17 18 19 20 21 22 23 24 25 26 27 28 29 30 31 32 33 34 35 36 37 38 39 40 41 42 43 44 45 46 47 48 49 50
000
ASUS43 KIWX 271610
RWRIWX

KIWX WEATHER ROUNDUP
NATIONAL WEATHER SERVICE NORTHERN INDIANA
1200 PM EDT SAT MAY 27 2017

NOTE: "FAIR" INDICATES FEW OR NO CLOUDS BELOW 12,000 FEET WITH NO
SIGNIFICANT WEATHER AND/OR OBSTRUCTIONS TO VISIBILITY.

* THESE STATIONS ARE NOT UNDER NWS QUALITY CONTROL. THEY ALSO MAY NOT
  REPORT WEATHER SUCH AS PRECIPITATION OR FOG.

INZ001>027-271700-
NORTHERN INDIANA

CITY           SKY/WX    TMP DP  RH WIND       PRES   REMARKS
GARY*          PTSUNNY   61  54  77 VRB3      29.92F
VALPARAISO     CLOUDY    68  61  78 NE8       29.91F
MICHIGAN CITY* CLOUDY    64  63  94 N3        29.92F
LAPORTE*       CLOUDY    64  60  86 NE7       29.91F
KNOX*          CLOUDY    63  54  72 NE7       29.90F
SOUTH BEND     CLOUDY    66  61  84 NE7       29.91F
ELKHART*       PTSUNNY  N/A N/A N/A CALM      29.91F
GOSHEN         CLOUDY    67  59  75 NE5       29.90F
MONTICELLO*    CLOUDY    64  61  89 NE8       29.89S
LOGANSPORT*    CLOUDY    66  63  88 N8        29.89F
ROCHESTER*     CLOUDY    68  63  83 N5        29.90F
WARSAW*        CLOUDY    64  61  88 NE5       29.90F
ANGOLA*        PTSUNNY   68  61  77 CALM      29.90F
FORT WAYNE     CLOUDY    70  61  73 NE6       29.89F
HUNTINGTON*    CLOUDY    66  64  92 NE6       29.89S
PERU/GRISSOM   CLOUDY    66  66 100 N9        29.88S
MARION*        CLOUDY    66  63  88 NW3       29.90R

$$
INZ028>050-271700-
CENTRAL INDIANA

CITY           SKY/WX    TMP DP  RH WIND       PRES   REMARKS
LAFAYETTE      CLOUDY    66  62  87 N8        29.88S
KOKOMO*        CLOUDY    68  64  87 N9        29.90R
MUNCIE*        PTSUNNY   73  66  78 N9        29.87R
INDIANAPOLIS   PTSUNNY   70  62  76 W6        29.89R

$$
MIZ043>046-050>051-056>058-064>065-071>073-077>080-271700-
SOUTHWEST LOWER MICHIGAN

CITY           SKY/WX    TMP DP  RH WIND       PRES   REMARKS
BATTLE CREEK   CLOUDY    69  56  62 S6        29.92F
BENTON HARBOR  PTSUNNY   70  59  68 CALM      29.91F
COLDWATER*     PTSUNNY   70  58  65 CALM      29.91F
HILLSDALE*     CLOUDY    66  55  68 E6        29.92F
HOLLAND        MOSUNNY   72  56  57 VRB5      29.91F
GRAND RAPIDS   PTSUNNY   70  56  61 VRB5      29.92S
KALAMAZOO      PTSUNNY   71  57  61 S3        29.91F
STURGIS*       CLOUDY    67  59  74 CALM      29.91S
THREE RIVERS*  CLOUDY    65  58  75 CALM      29.92S

$$
OHZ001>008-015>018-024>025-271700-
NORTHWEST OHIO

CITY           SKY/WX    TMP DP  RH WIND       PRES   REMARKS
WAUSEON*       PTSUNNY   73  61  64 E8        29.90F
DEFIANCE       CLOUDY    68  61  78 NE9       29.90S
FINDLAY        CLOUDY    71  61  70 NE5       29.88R
TOLEDO EXPRESS PTSUNNY   70  59  68 VRB7      29.91R
TOLEDO METCALF PTSUNNY   71  59  65 SE5       29.91R
LIMA           CLOUDY    70  63  78 E3        29.89R

$$
AND FOR LAKE MICHIGAN COASTAL AND OPEN LAKE BUOY OBSERVATIONS

STATION/POSITION TEMP    WIND        PRES    VSBY  WAVE
                 AIR SEA DIR/SP/G                  HT/PER
                 (F)     (DEG/KT/KT) (MB)    (MI)  (FT/S)
CALUMET HARBOR    58     360/  5/  7 1012.7F
MICHIGAN CITY     55     280/  5/  5   N/A
BURNS HARBOR      53     360/  3/  7 1013.9
SOUTH LAKE BUOY   49 48  360/  4/  4 1013.7          0
4 MI NW BRIDGMAN  57 58   30/  6/  8 1013.3          1
MICHIGAN CITY     52 55  330/  4/  6   N/A           1

$$
&&




USA.gov is the U.S. government's official web portal to all federal, state and local government web resources and services.